FENGYUN 1C DEB, 29748

Orbit data source: Space-Track

FENGYUN 1C DEB, 29748 is space debris in LEO originally from a launch on Mon, 10 May 1999 UTC launched from the Taiyaun Space Center, China (TSC). Fengyun 1C debris stems from the Chinese weather satellite Fengyun-1C, which was intentionally destroyed by a Chinese anti-satellite missile in 2007. This event dramatically increased the amount of space debris, with thousands of trackable fragments posing hazards to satellites and human spaceflight. The Fengyun 1C debris cloud has become a focal point in discussions about space sustainability and the need for international regulations to prevent the creation of new debris.

Loading next visibility...
Identifier
29748, 1999-025AN
Orbit
LEO
Country
Flag of CNCN / PRC
Related business
Manufacturer
Unknown
Mission
Spacecraft
Bus & Motor
Unknown
Mass
Unknown
Launch date (UTC)
1999-05-10 (27 years ago)
Launch vehicle
Unknown
Launch site
Taiyaun Space Center, China (TSC)
Object type
Payload
Rocket body
Debris
Shape & HBR
Unknown shape, 0.1 m
Radar Cross Section
Medium (>0.1 m² and <1 m²)

Expand to show TLE details & history
Last TLE update: 4 days ago

TLE from 4 days ago
0 FENGYUN 1C DEB
1 29748U 99025AN  26160.64220360  .00014073  00000-0  69194-1 0  9998
2 29748  99.9286  50.5955 0840863  39.8390 326.1401 11.93286322808634
Epoch: 2026-06-09T15:24Z
TLE epoch observation values (Epoch: 2026-06-09T15:24:46.391Z)
Latitude
0.00004°
Longitude
-78.60958°
Altitude
1,168.473 km
Speed
7.51 km/s
True Right ascension
03h 22m 22s
True Declination
0° 00' 00"
Sunlit
Object was in daylight at epoch
Visualization orbit readout
Latitude
Unknown
Longitude
Unknown
Altitude
Unknown
Speed
Unknown
Apparent Right ascension
Unknown
Apparent Declination
Unknown
Sunlit
N/A
Visualization observer readout
Local Sidereal Time
07:56:18
Azimuth
Unknown
Elevation
Unknown
Doppler factor
Unknown
Orbital elements
Apogee altitude
2,388.54 km
Perigee altitude
1,028.579 km
Semi-major axis
8,086.696 km
Eccentricity
0.08409
Inclination
99.9286°
RAAN
50.5955°
Arg. of periapsis
39.839°
True anomaly
320.2707°
Mean anomaly
326.1401°
Eccentric anomaly
323.25804°
Mean motion
2.9846 °/min
Orbital period
120.62 mins
BSTAR
0.069194
Loading maneuver chart data...
Computing Atmospheric mass density...

Documentation

Showing up to 5 results
|